Temp
61 61 62 63 62 63 62 63 63 63 63 63 63 63 63 64 64 63 63 63 62 63 63 63 63 64 65 65 66 65 65 65 64 62 62 63 61 61 63 62 62 63 62 62 61 59 57 56 57 61 62 62 62 62 63 63 62 61 61 61 62 62 61
62 62 62 61 61 61 61 61 61 61 62 62 62 62 63 63 64 63 63 63 62 62 63 63 64 64 64 64 64 64 64 64 64 64 63 63 63 62 61 61 62 61 61 61 61 59 57 56 57 58 58 61 62 62 62 63 63 62 62 62 62 62 62
61 61 60 61 60 60 60 61 61 61 61 61 62 62 63 63 63 63 63 63 63 63 63 63 64 64 64 64 64 63 63 63 64 64 63 64 64 63 63 62 60 60 60 59 59 59 58 58 56 57 58 58 57 59 62 62 63 63 63 62 62 62 62
60 59 60 60 60 60 60 60 60 61 60 60 61 62 61 62 62 63 62 62 63 64 64 64 64 64 64 64 64 63 63 63 63 63 63 63 63 63 63 62 61 61 59 58 58 59 58 57 57 57 59 59 59 59 60 63 63 63 63 63 62 62 62
57 59 60 60 61 59 58 59 59 59 60 60 60 61 61 62 62 62 62 62 63 63 63 64 64 64 63 63 62 63 63 63 63 63 63 63 62 61 61 61 61 61 61 60 60 60 59 59 58 58 58 60 60 60 62 62 63 63 63 63 63 63 63
58 58 59 60 60 58 58 59 59 60 60 60 61 61 62 62 63 62 62 62 63 63 64 64 64 64 63 63 62 62 62 62 62 62 61 62 62 61 61 61 61 61 61 62 62 61 60 60 60 58 59 61 58 59 61 61 60 62 64 63 63 63 63
57 58 58 59 59 58 58 58 59 60 60 61 61 61 62 63 63 63 63 63 63 63 64 64 64 64 63 63 63 62 62 63 63 62 62 62 62 62 63 61 61 62 62 63 62 61 60 60 59 58 58 59 59 59 60 60 61 60 61 63 64 64 64
58 58 58 58 58 59 60 60 60 61 61 61 61 62 63 63 63 63 63 63 63 63 64 63 63 63 63 63 62 62 62 62 62 63 62 62 62 62 62 62 62 62 62 62 62 61 62 61 60 60 59 57 57 59 58 59 60 60 61 62 63 63 63
58 58 59 59 60 61 61 61 61 61 61 62 62 62 63 63 63 63 63 63 63 63 63 63 63 62 62 62 62 62 62 64 63 62 62 62 62 63 62 62 62 62 63 62 62 62 62 63 62 61 61 59 57 55 58 57 58 59 62 60 62 63 63
61 61 61 60 60 61 62 62 61 61 62 62 62 63 63 63 63 63 63 63 63 63 63 63 63 63 63 62 62 62 62 63 63 62 63 62 62 62 62 62 62 62 62 63 63 63 62 63 62 62 61 60 59 57 55 56 56 57 59 62 59 62 64
62 62 62 62 61 61 62 62 62 61 61 62 63 63 63 63 62 63 62 62 62 62 62 63 63 63 62 62 62 62 62 62 61 62 62 62 62 62 62 62 62 61 62 62 62 63 62 62 62 62 62 61 61 59 57 56 56 58 58 61 62 61 63
61 60 61 61 61 61 60 60 60 60 61 62 62 62 61 60 60 60 61 60 60 61 61 62 62 62 62 61 61 61 61 61 61 61 62 62 62 62 62 62 62 62 62 62 62 63 63 62 62 62 62 62 61 61 59 58 55 57 60 59 61 63 63
59 59 60 59 59 59 59 59 60 59 59 60 61 60 59 58 58 58 58 58 58 59 59 60 61 62 61 61 61 61 61 61 61 61 61 61 62 62 62 61 61 61 62 62 62 62 62 62 62 62 61 61 61 60 59 58 57 56 59 60 61 62 63
58 58 58 58 58 59 59 59 59 59 59 58 58 58 57 58 58 57 57 57 57 57 56 57 58 60 60 60 60 59 59 59 60 60 60 61 62 62 61 61 61 62 62 61 61 62 62 62 62 61 61 61 60 60 59 58 57 56 58 59 60 61 62
56 56 55 56 57 57 58 58 58 59 57 57 57 56 56 56 56 56 56 56 55 55 54 55 55 56 59 60 60 60 59 59 59 59 59 60 60 61 61 61 61 61 62 62 61 62 61 61 61 60 60 60 60 59 60 58 57 57 56 57 59 61 61
55 55 55 56 56 56 56 57 57 57 56 56 57 56 56 55 55 55 54 54 54 53 53 53 54 54 55 57 59 60 60 59 59 58 58 59 59 60 60 59 59 60 61 61 60 60 61 61 61 60 60 60 59 59 60 60 58 57 57 57 59 59 60
55 56 55 56 55 55 56 56 56 55 55 56 55 55 56 55 54 53 53 53 53 53 53 53 53 53 54 55 57 59 59 59 59 59 59 59 59 59 59 59 58 59 59 59 59 59 59 60 60 60 60 59 60 60 59 59 59 58 57 56 58 59 61
55 54 54 55 54 55 55 55 55 55 54 54 54 54 55 55 53 53 52 52 52 52 52 52 52 53 54 56 58 59 59 60 60 60 60 60 61 60 59 59 59 59 59 59 58 58 59 59 60 60 59 59 59 59 60 59 59 59 58 57 57 59 60
54 54 54 54 54 54 54 54 53 53 53 52 52 53 53 53 53 52 52 52 52 51 51 51 51 52 55 58 59 60 60 60 60 60 60 59 59 59 59 59 59 59 59 59 59 59 59 60 60 59 59 59 59 59 59 59 59 58 58 58 57 56 59
53 53 53 53 53 53 53 53 52 51 52 51 51 50 52 52 52 52 51 51 51 51 51 50 50 51 55 57 58 58 58 59 60 59 59 59 59 58 58 58 57 57 58 59 59 59 59 59 58 59 59 59 59 59 57 58 58 58 58 57 57 57 58
53 53 53 53 52 52 52 51 50 50 49 48 49 49 50 51 51 51 50 51 51 51 51 50 49 50 54 56 56 56 55 55 56 57 57 57 57 57 57 57 57 56 55 55 56 59 59 58 58 58 58 59 59 58 57 57 57 57 57 57 57 56 57
53 53 52 52 51 50 49 48 48 48 48 48 49 49 50 50 50 50 50 49 49 49 49 49 49 49 51 54 54 54 53 52 52 52 53 54 55 56 56 56 57 57 57 56 52 50 53 56 58 58 57 58 58 58 57 57 57 57 57 57 56 56 56
52 51 50 49 49 48 47 47 47 47 48 48 48 49 49 50 50 49 48 48 48 47 47 47 48 47 48 52 52 52 51 50 50 50 50 50 51 53 54 55 56 58 56 54 51 46 45 45 49 54 56 58 58 57 57 56 56 56 57 56 56 55 55
51 49 48 47 46 46 46 46 45 46 46 47 47 48 48 48 48 48 48 47 46 46 45 46 44 43 43 46 52 51 50 50 50 49 49 48 48 49 52 54 54 56 56 56 54 48 46 45 44 44 44 46 49 55 57 56 56 56 55 56 55 55 55
48 47 46 46 45 45 45 45 44 44 45 45 45 46 45 46 46 47 47 46 45 45 45 44 42 43 43 43 47 50 50 49 49 49 48 48 47 48 49 51 52 53 54 55 56 54 52 48 45 45 45 45 44 42 44 54 56 55 55 55 54 55 55
49 47 46 45 45 45 44 44 43 43 43 44 44 44 44 44 44 45 45 45 44 44 44 42 41 42 43 43 44 48 49 49 49 48 49 48 47 47 47 48 49 49 50 53 51 53 54 53 49 48 48 48 48 46 42 41 43 53 56 55 55 54 55
50 48 46 45 45 44 43 43 43 43 43 43 43 43 43 43 43 43 44 43 43 43 43 41 40 41 42 42 43 46 48 48 48 48 49 48 48 47 47 46 46 46 47 47 46 48 54 54 53 53 53 52 50 49 46 44 44 45 49 54 54 54 54
49 48 46 45 44 43 43 42 42 42 42 42 42 42 42 42 43 43 43 43 43 42 42 41 40 41 41 42 43 45 47 47 47 47 48 49 49 48 48 47 47 46 46 45 45 45 49 53 54 54 53 52 52 51 48 47 47 48 47 48 48 50 50
46 45 44 44 43 42 42 41 41 42 42 42 42 42 42 42 42 42 43 42 42 41 41 40 40 41 41 42 44 47 47 46 46 46 46 47 47 48 48 48 47 46 46 45 43 42 44 51 54 54 52 52 52 52 51 48 43 44 46 46 46 45 45
44 43 43 43 42 42 41 41 41 42 41 41 41 41 41 41 42 42 42 42 41 41 41 40 40 40 40 41 45 46 46 46 45 45 45 46 47 47 47 47 47 46 46 45 42 41 42 47 49 50 51 51 51 50 50 52 48 45 44 44 44 44 43
42 42 42 41 41 41 41 41 41 42 40 40 40 40 40 40 40 41 41 41 42 40 40 41 40 40 40 41 45 45 45 45 44 44 44 44 45 46 47 46 46 44 44 43 41 42 43 47 47 47 48 49 49 48 48 50 51 50 47 46 45 45 44
41 41 41 40 41 40 40 40 40 41 40 40 40 39 41 39 39 39 40 40 44 40 39 41 40 40 40 40 44 45 45 44 43 42 43 43 44 44 44 45 44 42 43 41 40 40 41 46 46 45 46 46 46 46 47 48 48 48 49 49 49 49 48
41 41 40 40 40 40 40 40 39 40 39 39 39 39 39 39 38 38 38 38 39 39 39 39 40 39 40 40 41 44 43 43 42 41 42 43 42 42 42 42 43 40 39 39 39 40 40 41 46 45 45 43 43 44 48 48 47 48 48 48 47 48 48
41 41 41 40 41 41 40 39 39 39 38 39 39 39 38 38 38 37 37 37 37 38 40 38 40 39 40 40 40 41 42 42 41 41 41 41 40 40 40 41 41 41 39 40 40 40 40 40 42 44 43 43 43 43 46 46 46 46 47 47 47 47 47
42 42 41 41 40 39 39 39 39 38 37 38 38 37 37 37 37 37 37 37 37 36 40 42 39 40 39 40 39 40 40 40 41 42 41 40 40 39 39 39 40 40 39 40 40 40 40 40 41 44 41 40 40 41 45 46 46 46 45 45 45 45 45
41 42 41 40 39 38 38 38 38 38 37 38 37 37 36 36 37 37 38 37 36 37 36 40 40 40 40 39 39 39 39 39 40 42 40 39 38 38 39 39 41 41 39 39 40 40 40 40 42 40 39 40 41 41 44 45 44 44 44 44 44 43 43
40 39 40 39 39 38 38 38 37 37 36 37 37 36 35 36 36 36 36 37 37 37 36 37 40 40 40 39 39 39 39 39 39 40 40 39 38 38 38 38 40 39 39 40 40 40 40 40 39 39 40 40 41 42 45 44 44 44 43 42 42 42 42
MSLP
1017.36 1017.40 1017.12 1017.00 1016.84 1016.80 1016.68 1016.68 1016.56 1016.40 1016.20 1016.08 1016.08 1015.92 1015.80 1015.64 1015.56 1015.48 1015.44 1015.48 1015.48 1015.40 1015.36 1015.32 1015.28 1015.16 1015.04 1014.84 1014.76 1014.72 1014.72 1014.76 1014.88 1015.00 1015.04 1015.04 1015.32 1015.12 1015.00 1015.16 1015.28 1015.36 1015.32 1015.16 1015.28 1015.60 1015.84 1016.44 1016.40 1016.08 1016.04 1016.04 1016.12 1016.12 1016.16 1016.28 1016.48 1016.64 1016.80 1016.96 1017.08 1017.20 1017.44
1017.52 1017.40 1017.28 1017.16 1017.04 1016.96 1016.84 1016.72 1016.68 1016.56 1016.36 1016.16 1016.04 1015.96 1015.80 1015.72 1015.64 1015.56 1015.44 1015.36 1015.32 1015.20 1015.16 1015.08 1015.00 1014.96 1014.88 1014.80 1014.68 1014.68 1014.64 1014.56 1014.52 1014.48 1014.52 1014.52 1014.68 1014.72 1014.88 1014.80 1014.92 1015.08 1015.20 1015.20 1015.24 1015.32 1015.48 1016.00 1016.20 1016.20 1016.16 1016.08 1016.12 1016.00 1015.96 1015.96 1016.08 1016.28 1016.44 1016.60 1016.76 1016.88 1017.12
1017.64 1017.44 1017.32 1017.28 1017.28 1017.24 1017.20 1017.00 1016.84 1016.64 1016.48 1016.36 1016.20 1016.04 1015.96 1015.84 1015.72 1015.56 1015.44 1015.28 1015.12 1015.04 1014.96 1014.88 1014.80 1014.72 1014.68 1014.56 1014.40 1014.36 1014.32 1014.36 1014.24 1014.28 1014.16 1014.00 1014.04 1014.12 1014.36 1014.48 1014.72 1014.80 1015.00 1015.16 1015.24 1015.36 1015.44 1015.32 1015.68 1015.80 1015.72 1015.96 1016.16 1015.80 1015.72 1015.76 1015.84 1015.96 1016.12 1016.40 1016.64 1016.76 1016.92
1017.80 1017.76 1017.60 1017.60 1017.56 1017.44 1017.44 1017.32 1017.08 1016.88 1016.68 1016.52 1016.36 1016.20 1016.08 1015.92 1015.72 1015.56 1015.44 1015.28 1015.08 1014.96 1014.84 1014.72 1014.64 1014.48 1014.32 1014.24 1014.12 1014.04 1014.08 1014.12 1014.08 1013.96 1013.88 1013.84 1013.76 1013.68 1013.76 1013.96 1014.12 1014.24 1014.52 1014.68 1014.64 1014.76 1014.92 1015.24 1015.60 1015.44 1015.28 1015.24 1015.20 1015.48 1015.36 1015.28 1015.52 1015.68 1015.88 1016.12 1016.40 1016.52 1016.64
1018.04 1018.00 1017.92 1017.96 1017.88 1017.84 1017.68 1017.56 1017.32 1017.12 1016.80 1016.56 1016.40 1016.28 1016.04 1015.84 1015.68 1015.48 1015.36 1015.24 1015.08 1014.92 1014.76 1014.60 1014.40 1014.24 1014.08 1014.00 1013.96 1013.88 1013.80 1013.76 1013.72 1013.68 1013.64 1013.60 1013.60 1013.64 1013.64 1013.68 1013.76 1013.80 1013.96 1014.00 1013.96 1014.08 1014.32 1014.32 1014.44 1014.64 1014.88 1014.88 1015.08 1014.92 1014.76 1015.20 1015.28 1015.52 1015.68 1015.88 1016.00 1016.12 1016.24
1018.12 1018.08 1018.12 1018.08 1018.00 1017.96 1017.80 1017.68 1017.48 1017.24 1016.96 1016.80 1016.60 1016.40 1016.04 1015.84 1015.68 1015.48 1015.32 1015.16 1015.00 1014.80 1014.60 1014.40 1014.20 1014.00 1013.84 1013.68 1013.68 1013.68 1013.60 1013.56 1013.52 1013.52 1013.48 1013.40 1013.36 1013.40 1013.44 1013.48 1013.52 1013.56 1013.48 1013.28 1013.36 1013.48 1013.56 1013.84 1014.12 1014.48 1014.36 1014.36 1014.72 1014.80 1014.76 1015.00 1015.28 1015.28 1015.36 1015.52 1015.64 1015.76 1015.96
1018.24 1018.20 1018.16 1018.16 1018.04 1018.00 1017.88 1017.76 1017.56 1017.36 1017.20 1017.08 1016.80 1016.52 1016.20 1015.92 1015.68 1015.52 1015.32 1015.08 1014.84 1014.60 1014.36 1014.16 1014.00 1013.84 1013.68 1013.60 1013.48 1013.40 1013.32 1013.28 1013.28 1013.20 1013.12 1013.00 1012.96 1012.92 1013.00 1013.16 1013.12 1013.04 1013.00 1013.04 1013.12 1013.12 1013.40 1013.60 1013.88 1014.00 1014.28 1014.40 1014.44 1014.68 1014.76 1014.92 1014.92 1015.36 1015.28 1015.20 1015.24 1015.40 1015.64
1018.32 1018.24 1018.16 1018.12 1018.08 1018.04 1017.92 1017.76 1017.56 1017.40 1017.28 1017.08 1016.88 1016.56 1016.24 1015.96 1015.68 1015.40 1015.16 1014.92 1014.68 1014.44 1014.20 1014.00 1013.84 1013.68 1013.56 1013.44 1013.28 1013.12 1013.08 1013.08 1013.00 1012.84 1012.72 1012.68 1012.60 1012.60 1012.64 1012.68 1012.68 1012.72 1012.72 1012.68 1012.88 1013.00 1012.88 1013.00 1013.08 1013.36 1013.84 1014.48 1014.56 1014.60 1014.80 1014.76 1014.80 1014.80 1014.72 1014.88 1014.92 1015.16 1015.28
1018.32 1018.20 1018.16 1018.08 1018.04 1017.96 1017.88 1017.72 1017.60 1017.44 1017.24 1017.04 1016.80 1016.52 1016.24 1016.00 1015.68 1015.40 1015.12 1014.92 1014.64 1014.44 1014.20 1013.96 1013.76 1013.60 1013.44 1013.32 1013.16 1013.00 1012.88 1012.64 1012.60 1012.52 1012.44 1012.40 1012.32 1012.24 1012.20 1012.16 1012.32 1012.28 1012.16 1012.24 1012.44 1012.52 1012.48 1012.44 1012.60 1012.84 1013.16 1013.68 1014.20 1014.64 1014.48 1014.68 1014.68 1014.64 1014.44 1014.96 1014.92 1014.84 1015.00
1018.28 1018.28 1018.24 1018.20 1018.08 1017.88 1017.76 1017.68 1017.60 1017.44 1017.20 1017.00 1016.76 1016.52 1016.28 1015.96 1015.76 1015.48 1015.24 1014.96 1014.68 1014.48 1014.24 1014.00 1013.76 1013.52 1013.32 1013.20 1013.04 1012.84 1012.68 1012.48 1012.40 1012.32 1012.20 1012.12 1012.00 1011.96 1011.92 1011.92 1011.96 1011.88 1011.72 1011.76 1011.92 1012.00 1012.08 1012.24 1012.32 1012.52 1012.60 1013.00 1013.40 1013.88 1014.28 1014.40 1014.40 1014.48 1014.44 1014.36 1014.84 1014.56 1014.52
1018.48 1018.32 1018.20 1018.16 1018.04 1017.92 1017.80 1017.68 1017.60 1017.48 1017.28 1017.00 1016.80 1016.60 1016.36 1016.16 1015.92 1015.64 1015.40 1015.12 1014.84 1014.64 1014.40 1014.16 1013.88 1013.60 1013.40 1013.24 1013.00 1012.76 1012.56 1012.40 1012.36 1012.20 1012.08 1011.96 1011.84 1011.72 1011.64 1011.60 1011.56 1011.56 1011.48 1011.56 1011.60 1011.64 1011.80 1011.84 1012.04 1012.32 1012.52 1012.60 1012.84 1013.32 1013.40 1013.80 1014.04 1013.84 1013.96 1013.96 1014.00 1014.24 1014.28
1018.64 1018.52 1018.40 1018.24 1018.16 1018.12 1018.04 1017.88 1017.80 1017.64 1017.36 1017.08 1016.88 1016.80 1016.64 1016.52 1016.32 1016.04 1015.72 1015.48 1015.16 1014.96 1014.64 1014.36 1014.04 1013.76 1013.52 1013.32 1013.08 1012.88 1012.64 1012.44 1012.32 1012.24 1012.12 1012.04 1011.76 1011.60 1011.48 1011.44 1011.36 1011.36 1011.24 1011.28 1011.36 1011.48 1011.56 1011.64 1011.84 1012.04 1012.24 1012.36 1012.60 1012.68 1012.88 1013.16 1013.56 1013.32 1013.28 1013.76 1013.68 1013.56 1013.80
1018.84 1018.76 1018.68 1018.56 1018.48 1018.40 1018.32 1018.16 1018.00 1017.80 1017.64 1017.40 1017.24 1017.08 1017.04 1016.88 1016.72 1016.48 1016.16 1015.84 1015.60 1015.40 1015.12 1014.72 1014.28 1013.92 1013.64 1013.40 1013.16 1012.96 1012.76 1012.64 1012.48 1012.32 1012.16 1011.92 1011.64 1011.48 1011.32 1011.28 1011.28 1011.24 1011.16 1011.16 1011.20 1011.24 1011.32 1011.40 1011.56 1011.80 1012.00 1012.20 1012.36 1012.52 1012.76 1013.12 1013.24 1013.20 1013.04 1013.00 1013.20 1013.32 1013.32
1019.16 1019.04 1018.96 1018.80 1018.72 1018.64 1018.56 1018.40 1018.24 1018.04 1017.84 1017.80 1017.68 1017.52 1017.40 1017.28 1017.08 1016.88 1016.60 1016.28 1016.12 1015.92 1015.68 1015.28 1014.80 1014.32 1013.84 1013.56 1013.32 1013.16 1013.00 1012.80 1012.60 1012.36 1012.16 1011.84 1011.56 1011.36 1011.32 1011.32 1011.32 1011.28 1011.20 1011.20 1011.08 1011.12 1011.16 1011.32 1011.44 1011.52 1011.76 1012.00 1012.28 1012.44 1012.68 1012.96 1013.36 1013.24 1013.12 1012.92 1013.08 1013.24 1013.36
1019.40 1019.32 1019.20 1019.08 1019.00 1019.00 1018.92 1018.76 1018.52 1018.28 1018.20 1018.16 1018.00 1017.96 1017.84 1017.68 1017.48 1017.28 1017.04 1016.80 1016.60 1016.40 1016.08 1015.68 1015.32 1014.92 1014.28 1013.76 1013.44 1013.20 1013.12 1012.88 1012.64 1012.48 1012.20 1011.96 1011.80 1011.64 1011.48 1011.44 1011.36 1011.32 1011.20 1011.20 1011.16 1011.12 1011.12 1011.20 1011.32 1011.52 1011.68 1011.84 1012.08 1012.32 1012.40 1012.80 1013.08 1013.28 1013.36 1013.28 1013.28 1013.24 1013.36
1019.60 1019.48 1019.40 1019.32 1019.36 1019.32 1019.24 1019.08 1018.84 1018.72 1018.60 1018.48 1018.36 1018.28 1018.24 1018.08 1017.92 1017.76 1017.56 1017.32 1017.04 1016.72 1016.40 1016.04 1015.64 1015.28 1014.84 1014.32 1013.80 1013.40 1013.16 1013.04 1012.88 1012.76 1012.60 1012.36 1012.20 1012.00 1011.84 1011.76 1011.76 1011.56 1011.40 1011.36 1011.28 1011.24 1011.24 1011.28 1011.32 1011.40 1011.48 1011.56 1011.84 1012.12 1012.28 1012.44 1012.88 1013.28 1013.28 1013.36 1013.28 1013.32 1013.24
1019.80 1019.76 1019.68 1019.68 1019.72 1019.64 1019.56 1019.40 1019.20 1019.12 1019.00 1018.88 1018.80 1018.68 1018.48 1018.40 1018.28 1018.12 1017.88 1017.60 1017.36 1017.08 1016.68 1016.32 1015.88 1015.48 1015.12 1014.68 1014.20 1013.72 1013.40 1013.16 1012.96 1012.88 1012.76 1012.64 1012.52 1012.48 1012.28 1012.04 1011.88 1011.76 1011.68 1011.56 1011.48 1011.40 1011.28 1011.20 1011.24 1011.36 1011.60 1011.84 1011.80 1011.92 1012.20 1012.44 1012.56 1012.76 1012.92 1013.20 1013.16 1013.08 1013.00
1020.16 1020.12 1020.04 1020.04 1020.00 1019.92 1019.88 1019.80 1019.64 1019.56 1019.48 1019.40 1019.24 1019.00 1018.80 1018.68 1018.56 1018.40 1018.24 1018.04 1017.80 1017.48 1017.12 1016.68 1016.20 1015.64 1015.16 1014.72 1014.28 1013.92 1013.64 1013.40 1013.20 1013.00 1012.84 1012.72 1012.60 1012.52 1012.36 1012.20 1012.08 1011.88 1011.64 1011.72 1011.60 1011.72 1011.56 1011.32 1011.32 1011.28 1011.32 1011.60 1011.80 1011.96 1012.16 1012.32 1012.40 1012.56 1012.76 1012.84 1012.96 1012.96 1012.96
1020.52 1020.44 1020.40 1020.36 1020.32 1020.32 1020.28 1020.20 1020.16 1020.04 1019.96 1019.92 1019.72 1019.48 1019.24 1019.08 1018.92 1018.76 1018.60 1018.40 1018.12 1017.84 1017.44 1017.00 1016.52 1015.96 1015.40 1014.88 1014.52 1014.20 1013.96 1013.80 1013.64 1013.48 1013.28 1013.12 1013.00 1012.88 1012.76 1012.64 1012.40 1012.12 1011.88 1011.84 1011.72 1011.72 1011.72 1011.60 1011.44 1011.56 1011.44 1011.64 1011.80 1012.00 1012.00 1011.96 1012.12 1012.44 1012.60 1012.60 1012.72 1013.04 1013.04
1020.84 1020.84 1020.80 1020.76 1020.72 1020.68 1020.68 1020.68 1020.60 1020.56 1020.40 1020.32 1020.16 1019.92 1019.68 1019.52 1019.28 1019.16 1018.92 1018.68 1018.44 1018.16 1017.80 1017.32 1016.84 1016.32 1015.72 1015.32 1015.08 1014.92 1014.68 1014.40 1014.12 1013.96 1013.80 1013.60 1013.40 1013.24 1013.12 1013.04 1012.96 1012.80 1012.48 1012.08 1011.92 1011.72 1011.68 1011.76 1011.76 1011.72 1011.52 1011.64 1011.76 1011.88 1012.16 1012.12 1012.00 1012.20 1012.44 1012.52 1012.64 1012.76 1012.88
1021.20 1021.20 1021.16 1021.12 1021.12 1021.08 1021.12 1021.12 1021.12 1021.04 1020.88 1020.72 1020.56 1020.36 1020.12 1020.00 1019.80 1019.52 1019.32 1019.04 1018.76 1018.44 1018.04 1017.68 1017.36 1016.84 1016.20 1015.84 1015.64 1015.48 1015.36 1015.20 1014.96 1014.64 1014.48 1014.28 1014.08 1013.88 1013.76 1013.56 1013.32 1013.20 1013.12 1012.88 1012.56 1012.00 1011.84 1011.84 1011.92 1011.92 1011.68 1011.64 1011.76 1011.88 1011.92 1012.08 1012.28 1012.40 1012.52 1012.60 1012.72 1012.92 1012.96
1021.56 1021.56 1021.52 1021.52 1021.56 1021.60 1021.60 1021.60 1021.52 1021.36 1021.24 1021.08 1020.88 1020.80 1020.56 1020.32 1020.12 1019.92 1019.72 1019.52 1019.24 1018.92 1018.56 1018.32 1018.08 1017.68 1016.96 1016.44 1016.28 1016.20 1016.12 1016.04 1015.84 1015.64 1015.36 1015.04 1014.68 1014.36 1014.12 1013.96 1013.68 1013.44 1013.36 1013.24 1012.92 1012.64 1012.36 1012.04 1011.92 1011.84 1011.88 1011.88 1011.92 1012.00 1012.12 1012.12 1012.12 1012.28 1012.44 1012.60 1012.80 1012.88 1013.04
1021.88 1021.88 1021.96 1022.00 1022.08 1022.08 1022.04 1021.96 1021.80 1021.68 1021.52 1021.36 1021.24 1021.04 1020.84 1020.52 1020.36 1020.32 1020.20 1019.96 1019.72 1019.44 1019.32 1019.12 1018.92 1018.28 1017.80 1017.36 1017.16 1017.04 1016.92 1016.80 1016.68 1016.52 1016.28 1015.92 1015.48 1015.04 1014.64 1014.36 1014.12 1013.80 1013.60 1013.48 1013.36 1013.16 1012.84 1012.60 1012.48 1012.44 1012.20 1012.00 1012.04 1012.16 1012.28 1012.28 1012.28 1012.28 1012.40 1012.56 1012.68 1012.84 1013.00
1022.24 1022.36 1022.44 1022.48 1022.48 1022.44 1022.36 1022.28 1022.16 1022.04 1021.92 1021.72 1021.52 1021.36 1021.16 1020.92 1020.80 1020.72 1020.64 1020.52 1020.32 1020.04 1019.92 1019.88 1019.44 1018.92 1018.48 1018.04 1017.68 1017.64 1017.52 1017.40 1017.20 1017.12 1016.92 1016.76 1016.48 1016.04 1015.40 1014.84 1014.52 1014.16 1013.88 1013.72 1013.72 1013.72 1013.56 1013.28 1013.08 1012.88 1012.80 1012.72 1012.60 1012.36 1012.20 1012.28 1012.28 1012.36 1012.56 1012.60 1012.56 1012.72 1012.68
1022.68 1022.76 1022.76 1022.84 1022.84 1022.80 1022.72 1022.64 1022.56 1022.44 1022.28 1022.04 1021.92 1021.72 1021.52 1021.52 1021.40 1021.24 1021.08 1020.96 1020.76 1020.68 1020.60 1020.40 1019.80 1019.44 1019.12 1018.72 1018.36 1018.20 1018.04 1017.92 1017.76 1017.56 1017.44 1017.36 1017.20 1016.80 1016.28 1015.72 1015.28 1014.88 1014.48 1014.24 1014.00 1013.88 1013.80 1013.72 1013.56 1013.44 1013.36 1013.20 1013.08 1012.96 1012.76 1012.44 1012.28 1012.44 1012.60 1012.48 1012.48 1012.48 1012.56
1022.84 1023.00 1023.12 1023.16 1023.20 1023.16 1023.12 1023.00 1022.92 1022.80 1022.68 1022.60 1022.32 1022.04 1022.12 1021.92 1021.88 1021.80 1021.60 1021.48 1021.48 1021.32 1021.08 1020.84 1020.36 1019.96 1019.64 1019.20 1018.88 1018.60 1018.56 1018.40 1018.24 1018.16 1017.88 1017.72 1017.60 1017.40 1017.08 1016.68 1016.28 1015.96 1015.64 1015.12 1014.80 1014.40 1014.20 1014.16 1013.92 1013.68 1013.56 1013.48 1013.56 1013.68 1013.48 1013.24 1013.12 1012.92 1012.48 1012.36 1012.48 1012.48 1012.40
1023.00 1023.24 1023.40 1023.48 1023.48 1023.48 1023.40 1023.40 1023.44 1023.32 1023.20 1022.92 1022.72 1022.64 1022.52 1022.44 1022.36 1022.28 1022.20 1022.20 1022.12 1021.88 1021.64 1021.44 1020.96 1020.48 1020.08 1019.72 1019.44 1019.16 1019.08 1018.88 1018.76 1018.56 1018.40 1018.20 1018.04 1017.88 1017.72 1017.52 1017.24 1016.88 1016.48 1016.08 1015.76 1015.32 1014.64 1014.48 1014.36 1014.20 1014.04 1014.00 1014.08 1014.04 1013.92 1013.88 1013.64 1013.36 1013.16 1013.00 1012.76 1012.68 1012.72
1023.32 1023.52 1023.68 1023.76 1023.76 1023.76 1023.76 1023.84 1023.76 1023.72 1023.56 1023.40 1023.28 1023.24 1023.16 1023.00 1022.92 1022.84 1022.76 1022.64 1022.44 1022.28 1022.28 1021.96 1021.40 1020.92 1020.52 1020.20 1020.00 1019.72 1019.64 1019.44 1019.20 1019.04 1018.88 1018.64 1018.52 1018.36 1018.16 1017.92 1017.72 1017.60 1017.28 1016.92 1016.72 1016.20 1015.60 1015.00 1014.72 1014.56 1014.56 1014.68 1014.76 1014.76 1014.76 1014.68 1014.68 1014.40 1014.20 1014.20 1014.24 1014.08 1013.72
1023.80 1023.96 1024.08 1024.08 1024.08 1024.16 1024.20 1024.24 1024.20 1024.12 1023.92 1023.84 1023.76 1023.64 1023.56 1023.40 1023.40 1023.28 1023.16 1022.96 1022.72 1022.68 1022.68 1022.36 1021.92 1021.44 1021.04 1020.72 1020.40 1020.16 1020.08 1019.92 1019.84 1019.68 1019.48 1019.28 1019.16 1019.00 1018.72 1018.48 1018.28 1018.12 1017.92 1017.76 1017.44 1016.76 1016.36 1015.80 1015.36 1015.16 1015.12 1015.16 1015.16 1015.12 1015.16 1015.56 1015.60 1015.20 1014.96 1014.84 1014.88 1014.84 1014.68
1024.24 1024.32 1024.36 1024.36 1024.44 1024.56 1024.56 1024.56 1024.52 1024.40 1024.24 1024.24 1024.20 1024.16 1024.20 1024.12 1024.00 1023.76 1023.52 1023.32 1023.20 1023.16 1023.04 1022.88 1022.44 1022.00 1021.56 1021.16 1020.72 1020.64 1020.56 1020.40 1020.32 1020.28 1020.32 1020.12 1019.84 1019.64 1019.56 1019.36 1019.12 1018.80 1018.52 1018.44 1018.04 1017.44 1017.08 1016.68 1016.48 1016.24 1016.00 1015.88 1015.88 1015.80 1015.88 1015.68 1015.44 1015.28 1015.16 1015.00 1014.84 1014.72 1014.60
1024.52 1024.60 1024.64 1024.72 1024.80 1024.88 1024.88 1024.84 1024.84 1024.76 1024.68 1024.68 1024.68 1024.80 1024.76 1024.60 1024.48 1024.32 1024.12 1024.00 1023.88 1023.72 1023.60 1023.32 1022.96 1022.56 1022.16 1021.76 1021.36 1021.24 1021.16 1021.04 1021.04 1020.96 1020.92 1020.80 1020.56 1020.32 1020.20 1020.12 1019.92 1019.76 1019.56 1019.44 1018.72 1018.08 1017.80 1017.44 1017.44 1017.36 1017.04 1016.68 1016.60 1016.52 1016.52 1016.28 1015.88 1015.68 1015.48 1015.32 1015.28 1015.16 1014.96
1024.84 1024.92 1024.96 1025.08 1025.12 1025.12 1025.16 1025.20 1025.24 1025.08 1025.08 1025.08 1025.20 1025.16 1025.04 1024.96 1024.92 1024.80 1024.72 1024.60 1024.24 1024.16 1024.04 1023.80 1023.52 1023.16 1022.76 1022.40 1022.00 1021.84 1021.68 1021.56 1021.52 1021.64 1021.48 1021.36 1021.16 1021.04 1020.84 1020.64 1020.60 1020.48 1020.32 1020.00 1019.44 1019.04 1018.60 1018.16 1018.24 1018.20 1018.04 1017.68 1017.52 1017.40 1017.44 1017.16 1016.72 1016.40 1016.16 1015.92 1015.80 1015.52 1015.44
1025.16 1025.20 1025.28 1025.32 1025.36 1025.40 1025.44 1025.44 1025.44 1025.40 1025.48 1025.48 1025.48 1025.48 1025.40 1025.36 1025.32 1025.36 1025.24 1025.04 1024.84 1024.68 1024.48 1024.32 1024.04 1023.72 1023.36 1023.04 1022.72 1022.44 1022.36 1022.12 1022.24 1022.24 1022.08 1021.92 1021.76 1021.60 1021.48 1021.32 1021.08 1021.00 1020.72 1020.36 1020.08 1019.76 1019.48 1019.12 1018.84 1018.80 1018.52 1018.68 1018.64 1018.56 1018.20 1017.72 1017.48 1017.20 1016.96 1016.80 1016.72 1016.56 1016.56
1025.44 1025.52 1025.56 1025.60 1025.68 1025.72 1025.76 1025.76 1025.80 1025.76 1025.80 1025.80 1025.72 1025.72 1025.72 1025.72 1025.64 1025.68 1025.60 1025.48 1025.32 1025.12 1024.92 1024.76 1024.44 1024.20 1023.92 1023.68 1023.40 1023.08 1023.00 1022.96 1022.92 1022.80 1022.68 1022.48 1022.44 1022.36 1022.16 1022.00 1021.80 1021.56 1021.12 1020.84 1020.60 1020.32 1020.04 1019.80 1019.56 1019.40 1019.32 1019.40 1019.64 1019.36 1018.48 1018.20 1018.08 1017.72 1017.48 1017.24 1017.08 1016.92 1016.76
1025.72 1025.80 1025.84 1025.84 1025.88 1026.00 1026.12 1026.08 1026.08 1026.16 1026.16 1026.12 1026.08 1026.12 1026.12 1026.04 1025.96 1025.96 1025.92 1025.80 1025.68 1025.60 1025.28 1025.04 1024.88 1024.52 1024.36 1024.12 1023.96 1023.72 1023.60 1023.64 1023.48 1023.20 1023.08 1023.08 1022.92 1022.84 1022.84 1022.64 1022.36 1022.04 1021.64 1021.32 1021.08 1020.80 1020.56 1020.32 1020.12 1019.92 1020.00 1019.76 1019.36 1019.00 1018.88 1018.80 1018.56 1018.28 1018.08 1017.88 1017.72 1017.52 1017.40
1026.08 1026.12 1026.20 1026.24 1026.20 1026.40 1026.48 1026.44 1026.48 1026.44 1026.40 1026.40 1026.40 1026.44 1026.48 1026.40 1026.24 1026.16 1026.08 1026.08 1026.08 1025.92 1025.76 1025.40 1025.20 1024.96 1024.72 1024.56 1024.36 1024.20 1024.12 1024.04 1023.80 1023.64 1023.68 1023.68 1023.68 1023.52 1023.24 1023.00 1022.68 1022.36 1022.04 1021.80 1021.52 1021.32 1021.12 1020.84 1020.56 1020.64 1020.32 1020.00 1019.76 1019.48 1019.24 1019.12 1018.96 1018.80 1018.72 1018.56 1018.36 1018.40 1018.40
1026.48 1026.48 1026.52 1026.52 1026.52 1026.64 1026.76 1026.80 1026.84 1026.88 1026.84 1026.72 1026.72 1026.76 1026.88 1026.76 1026.60 1026.52 1026.44 1026.36 1026.28 1026.20 1026.04 1025.84 1025.48 1025.28 1025.12 1024.92 1024.80 1024.64 1024.52 1024.40 1024.24 1024.16 1024.12 1024.24 1024.12 1023.88 1023.68 1023.40 1023.08 1022.64 1022.36 1022.12 1021.88 1021.68 1021.48 1021.32 1021.24 1020.96 1020.72 1020.48 1020.24 1019.96 1019.72 1019.60 1019.44 1019.36 1019.24 1019.16 1019.12 1019.16 1019.16
Wind_Speed
3 3 5 6 5 4 5 5 5 5 6 5 6 6 6 6 5 6 5 5 5 5 5 6 7 7 7 7 7 8 9 9 9 9 11 10 9 5 8 10 10 7 5 4 4 7 3 4 4 4 4 7 7 8 9 9 9 9 8 8 8 8 7
3 3 3 3 4 5 5 5 5 5 5 6 6 6 6 6 6 6 6 6 6 6 5 6 7 7 9 9 8 7 7 8 10 10 9 9 9 9 6 8 9 10 8 6 2 2 4 5 4 7 6 4 6 7 8 8 8 8 9 9 8 8 8
4 4 4 6 5 5 5 6 6 6 6 5 6 6 6 6 5 5 6 7 7 7 6 7 8 8 8 9 9 9 9 9 8 9 11 9 9 10 10 7 7 8 7 6 7 6 3 4 5 7 8 9 9 8 8 8 9 9 9 8 8 8 8
4 4 5 5 5 5 6 6 6 6 6 6 5 5 4 5 6 5 5 6 7 7 8 8 8 8 8 8 9 9 9 9 8 9 10 9 9 9 11 10 9 10 9 9 9 8 8 7 7 6 6 10 12 9 9 10 9 9 8 8 8 8 8
3 3 4 5 5 4 4 5 6 5 6 6 6 7 7 7 7 7 6 6 7 7 8 7 8 9 8 8 7 7 7 8 9 10 9 10 10 8 9 8 8 8 8 8 8 10 10 9 9 8 7 6 6 7 3 7 8 8 9 10 9 9 9
3 3 3 3 3 4 4 4 5 6 7 7 8 8 9 10 8 8 8 8 7 7 8 8 8 9 9 8 7 7 8 8 7 8 8 9 10 9 6 6 6 7 9 10 9 8 8 6 7 6 5 5 7 6 4 7 7 8 9 9 9 9 8
3 3 3 3 3 3 3 4 5 5 6 6 8 8 8 9 8 7 8 8 8 8 8 8 8 8 8 8 7 8 9 8 7 9 9 11 10 10 8 7 8 9 9 8 8 7 8 9 7 8 5 4 6 5 2 6 6 6 7 9 9 9 9
3 3 3 2 3 4 5 5 5 5 6 6 7 7 8 8 8 8 8 8 8 8 8 8 7 7 7 7 7 8 6 7 8 8 8 9 9 10 10 9 8 8 8 9 8 8 8 9 9 9 8 8 6 7 6 5 6 11 9 7 9 9 9
2 2 4 4 3 3 4 5 6 5 5 6 6 7 7 7 8 8 8 8 8 8 8 8 8 7 7 7 6 6 8 6 8 9 8 8 10 11 11 10 7 9 9 9 8 8 9 9 8 7 9 9 9 8 7 7 6 7 7 6 5 8 9
5 5 4 4 3 3 4 5 5 6 6 6 6 6 8 8 8 8 8 8 9 9 9 9 8 7 7 6 6 7 7 6 6 7 7 8 9 9 9 10 8 8 8 8 8 9 8 7 6 6 8 10 9 8 7 8 8 7 7 9 7 9 11
5 5 5 5 5 5 5 5 6 7 7 6 6 7 8 9 9 10 8 9 9 9 9 8 8 7 6 6 7 7 6 6 7 7 7 7 8 7 8 7 7 7 7 8 8 7 7 9 8 8 8 8 8 10 7 8 5 6 5 7 7 6 10
5 6 6 6 6 7 7 7 7 7 8 8 7 9 9 9 9 9 9 9 9 9 9 8 8 7 7 6 5 6 5 5 5 5 5 6 7 7 7 7 7 7 7 8 8 8 8 8 8 8 7 7 8 9 7 5 5 4 5 7 8 6 9
7 7 7 6 6 7 7 7 8 8 8 8 9 9 8 9 9 9 9 9 9 9 10 10 9 8 6 6 5 4 5 5 5 5 5 5 5 6 6 6 5 5 5 6 7 7 7 6 6 7 7 6 6 6 3 4 6 6 6 7 7 7 9
8 6 7 7 7 7 7 7 7 7 8 9 9 9 9 10 9 9 10 10 10 10 10 10 10 9 6 7 6 4 5 5 5 4 4 6 5 4 3 2 1 3 3 4 4 4 6 6 6 6 6 6 7 6 6 6 6 6 1 1 4 6 6
6 6 6 7 7 7 7 7 7 8 9 8 9 9 10 9 9 10 9 10 10 10 10 9 9 9 9 9 8 5 4 5 5 5 5 6 7 6 4 4 3 2 3 4 2 3 2 4 6 6 6 6 6 6 5 6 6 3 4 1 2 3 6
6 6 7 7 8 8 7 8 8 8 8 8 9 8 9 9 10 10 10 9 9 9 9 9 8 8 8 10 10 8 6 5 5 5 5 6 5 6 6 4 5 5 3 3 1 1 0 3 4 7 8 6 7 7 6 6 5 6 6 3 3 6 7
7 7 7 6 8 8 7 7 7 8 8 8 9 8 9 9 9 9 9 9 10 9 10 9 9 8 8 8 9 9 8 6 5 4 5 5 5 5 4 3 2 2 3 2 2 2 2 2 3 3 3 3 5 5 4 3 5 4 3 5 6 7 6
7 8 8 7 9 8 8 7 8 9 9 9 8 8 8 8 8 9 9 10 10 10 10 10 10 9 9 8 8 8 7 6 6 7 7 8 9 7 5 6 5 4 2 3 2 1 3 3 2 3 6 5 3 4 4 6 5 3 4 6 4 3 2
8 8 8 8 8 8 8 9 8 8 8 9 8 8 8 8 9 9 9 9 8 9 10 10 10 9 10 10 10 10 9 9 9 9 9 9 9 9 9 9 9 7 6 5 4 3 1 3 3 3 1 2 4 4 6 7 6 5 4 4 5 4 3
8 8 8 8 7 8 8 8 9 9 8 8 9 8 9 10 9 9 9 9 11 11 11 10 12 11 10 10 10 11 11 11 10 9 10 10 10 9 10 10 10 10 8 6 5 5 2 1 2 2 3 3 4 4 4 4 5 6 5 4 3 3 4
7 7 7 8 8 8 8 9 9 8 8 9 9 10 10 10 8 9 9 10 10 9 11 12 12 11 10 10 10 11 11 11 11 11 11 11 11 11 11 10 10 10 8 9 9 5 2 2 1 1 0 2 3 3 4 3 1 3 3 3 4 3 3
7 7 8 8 9 9 8 7 7 7 8 8 8 8 8 7 10 9 10 10 11 10 12 10 7 11 9 11 11 12 11 13 12 12 12 11 11 11 10 10 10 10 11 14 15 12 12 9 3 2 1 1 2 3 2 2 3 3 3 3 3 3 5
7 8 9 9 8 7 7 7 7 8 8 8 8 7 9 8 9 10 10 10 10 9 9 7 15 23 19 11 11 10 11 12 12 12 12 11 11 11 11 10 10 18 14 13 15 15 15 14 13 8 5 3 2 2 1 2 3 3 3 4 4 5 6
8 8 7 7 6 7 7 6 7 8 8 8 8 9 8 10 10 9 11 10 11 9 8 9 20 18 19 18 12 11 11 10 11 11 11 12 12 12 11 12 11 14 14 12 10 13 13 15 14 13 13 12 8 3 2 3 3 2 3 4 4 5 6
7 7 7 7 7 7 6 7 8 7 8 9 9 8 10 10 10 10 10 11 12 12 9 17 18 18 17 17 14 10 10 10 10 10 12 12 10 11 11 11 13 11 12 16 12 10 11 14 14 15 16 15 16 14 11 2 2 2 3 4 4 6 5
7 7 7 6 6 6 7 8 8 9 10 7 7 11 10 11 11 10 11 12 12 12 11 19 18 17 16 16 16 12 10 11 10 12 13 13 13 12 11 10 10 11 10 22 15 11 9 9 11 17 17 17 16 18 16 17 14 6 2 4 4 4 5
8 7 6 6 6 7 8 9 8 7 6 7 9 10 11 12 11 11 11 10 10 11 13 15 19 18 16 16 15 12 9 10 11 12 13 13 13 13 12 10 10 12 10 12 13 14 10 9 9 11 12 12 13 16 18 18 16 17 13 6 4 3 1
8 7 6 6 7 8 8 7 8 7 7 8 9 10 10 11 10 10 10 9 9 11 12 20 19 19 18 16 14 11 9 9 10 11 12 13 14 14 13 12 11 11 12 12 12 16 12 9 9 10 10 11 11 11 14 14 12 10 9 10 10 9 8
7 6 6 6 8 8 8 7 7 6 7 8 7 8 9 9 10 10 10 10 10 13 13 21 20 20 19 16 14 9 9 10 11 11 12 13 14 13 13 13 13 14 15 16 20 23 20 12 9 9 10 9 9 9 10 7 9 12 10 9 9 7 6
6 6 6 7 8 8 7 7 7 5 8 8 9 10 9 9 8 10 11 11 12 11 12 18 20 20 19 18 12 10 10 10 11 12 12 11 12 14 15 15 13 14 15 16 20 23 21 17 13 12 10 10 9 10 11 9 12 14 15 16 17 19 18
5 5 6 8 7 6 6 6 6 6 8 8 10 8 6 8 9 9 10 11 10 10 11 17 21 20 20 19 13 10 9 10 11 11 10 11 10 11 15 24 19 13 15 14 20 22 21 17 13 11 12 11 12 12 12 10 9 10 14 14 15 16 18
5 6 6 6 5 6 6 6 5 6 7 7 7 6 7 8 8 9 9 9 14 12 10 13 19 19 20 19 13 9 9 9 11 10 9 10 9 10 11 13 21 17 13 16 22 21 21 17 13 10 11 13 12 14 11 10 11 11 11 12 12 12 13
6 6 7 6 6 6 4 6 7 7 6 6 6 6 7 8 9 8 8 9 10 10 10 10 14 19 18 18 17 10 8 10 10 10 9 9 10 10 10 10 13 19 19 20 20 21 20 19 13 13 13 14 13 14 9 9 11 9 9 9 9 9 9
7 6 6 6 5 6 6 6 6 7 7 6 7 8 8 7 8 8 8 8 8 9 9 9 11 17 17 17 16 12 9 10 8 8 8 10 9 10 10 10 9 15 18 19 19 19 19 19 16 12 12 11 9 8 10 11 12 12 10 10 10 10 10
6 6 6 6 8 8 6 6 6 6 6 7 8 8 6 7 7 8 8 8 8 8 9 13 9 14 17 17 17 16 10 9 8 8 10 9 9 9 9 8 8 13 17 17 18 18 19 17 18 12 13 14 15 16 12 9 10 10 10 10 10 11 11
6 6 6 6 7 8 6 7 6 6 6 7 8 8 7 6 7 8 8 8 7 8 8 8 14 11 15 17 17 16 15 10 12 9 9 9 9 8 7 8 9 15 16 17 17 17 18 18 14 13 17 17 16 15 12 9 9 10 10 10 11 11 11
6 6 6 6 7 8 7 6 7 6 6 7 7 8 7 7 7 8 8 8 8 7 7 7 10 14 13 16 16 16 16 15 13 8 8 7 7 7 8 8 11 17 17 17 17 16 17 17 14 18 17 17 15 13 10 10 9 9 9 11 11 10 10
Wind_Direction
347 308 339 338 345 344 346 340 330 315 312 309 300 297 296 300 299 292 283 276 270 265 270 269 268 271 272 270 258 248 247 244 241 240 240 238 234 235 205 216 223 233 228 210 182 192 177 181 200 203 207 200 199 205 205 200 199 199 195 200 195 187 185
6 355 334 352 10 2 4 348 350 321 314 313 312 310 315 314 305 296 295 289 279 275 264 267 265 264 264 266 267 262 254 252 250 247 238 235 229 236 217 224 214 217 215 216 205 129 174 177 201 187 193 190 216 213 206 204 201 199 197 198 199 190 185
11 2 23 18 5 355 2 340 335 331 323 323 325 326 320 313 305 303 299 297 295 289 284 274 272 265 260 259 257 256 255 258 255 253 249 241 234 237 235 225 212 211 212 209 210 205 245 214 210 203 195 187 202 215 202 202 200 198 196 194 198 195 190
7 12 15 6 352 360 355 331 329 320 318 316 319 316 312 316 321 319 310 302 296 294 289 287 281 274 265 263 262 258 255 257 261 260 259 257 248 236 229 225 220 207 200 207 205 200 199 193 206 225 201 198 207 205 207 203 200 196 192 192 197 197 192
19 14 20 355 352 332 314 317 313 316 323 325 329 329 331 334 332 326 318 310 305 298 291 281 274 270 269 267 265 261 259 254 256 258 260 260 256 254 249 238 229 217 215 219 213 198 197 206 193 206 202 197 221 222 178 193 200 201 195 198 200 198 192
7 13 360 339 331 327 318 322 332 337 337 337 338 332 332 333 331 325 324 319 309 299 291 289 283 278 272 265 261 262 261 263 260 258 261 261 257 255 235 225 221 218 219 220 210 195 199 193 196 204 211 184 206 205 181 171 198 202 203 201 195 202 194
358 354 344 344 331 332 333 334 342 340 335 333 329 332 326 324 324 317 311 305 299 294 293 291 289 287 287 288 279 270 264 265 263 257 255 257 257 255 249 231 217 221 223 220 220 203 193 193 196 198 186 204 211 199 140 189 181 176 209 206 199 200 197
353 353 341 338 342 2 5 359 356 350 342 336 331 323 320 320 321 320 317 312 311 308 304 300 295 290 285 279 277 275 263 255 258 258 254 252 253 251 246 240 236 229 220 218 215 215 206 201 197 193 184 202 207 200 202 190 194 200 198 200 194 196 197
358 20 20 14 18 19 23 16 6 349 337 325 319 320 326 327 327 326 323 323 323 322 317 309 297 287 285 283 274 269 266 260 260 259 260 261 260 258 253 246 233 234 225 216 206 214 212 204 200 189 185 196 204 207 198 197 195 214 191 185 195 199 195
33 38 32 32 12 20 37 25 3 342 329 334 328 329 337 339 336 337 335 335 337 333 328 322 312 298 290 287 284 279 274 273 274 273 269 259 256 256 254 249 238 233 227 218 211 211 212 207 198 196 189 197 205 209 195 202 200 195 195 191 190 202 195
30 28 26 24 18 20 22 18 7 351 344 336 347 349 352 353 351 349 344 348 343 338 336 332 331 321 311 298 292 288 284 285 283 278 272 270 267 258 250 244 235 232 225 219 218 211 198 206 199 196 200 202 197 208 194 193 197 198 189 195 199 190 191
31 33 26 21 25 25 13 15 7 355 351 351 0 7 4 360 356 350 352 351 348 343 337 335 334 332 326 318 318 318 317 308 302 309 308 295 281 266 256 248 236 235 224 220 220 217 214 205 199 196 202 197 204 212 194 190 193 225 171 187 205 193 188
33 33 25 23 26 22 19 13 10 3 7 13 9 10 5 358 356 350 350 351 350 352 349 340 338 334 332 323 324 327 332 329 318 307 308 298 286 280 262 253 244 241 228 223 217 211 207 203 192 196 197 200 204 207 196 209 215 220 195 191 190 193 189
33 27 23 23 28 24 16 15 10 10 20 18 6 9 2 357 355 351 349 351 355 353 349 343 340 333 326 325 326 325 325 317 302 312 334 352 356 358 360 338 295 244 258 254 222 211 214 206 195 185 191 196 201 192 191 206 219 236 267 193 177 184 179
34 27 30 23 30 23 17 12 9 18 26 14 15 11 2 359 358 358 356 354 355 354 350 343 340 338 338 337 334 337 346 336 337 341 357 1 359 353 353 346 329 306 266 270 249 230 206 196 189 182 182 184 186 190 185 178 211 232 227 124 168 160 175
31 31 33 30 27 21 17 14 16 20 21 17 18 17 4 0 4 4 4 358 354 352 349 345 338 343 340 339 336 334 341 354 353 351 354 357 351 339 348 358 352 336 304 271 315 359 296 204 193 193 187 179 184 201 192 193 187 211 220 209 176 190 196
37 32 32 28 29 22 18 18 15 19 15 14 14 9 8 7 8 6 2 2 3 353 349 346 342 346 337 330 332 332 333 344 357 358 360 353 353 352 335 339 332 335 343 356 8 11 317 309 221 171 150 191 202 182 170 189 202 200 182 175 202 197 193
39 33 29 27 27 26 22 19 19 21 13 12 2 2 4 11 9 6 4 3 3 358 356 350 348 348 347 344 343 343 341 345 359 9 11 10 8 347 342 337 332 338 344 354 339 338 317 282 262 186 177 180 170 153 165 192 194 174 171 201 189 198 168
41 36 31 30 24 25 26 26 24 25 20 17 0 359 1 7 8 4 2 3 358 1 0 358 353 355 1 4 7 8 12 16 17 23 26 26 23 17 12 2 352 345 349 345 331 325 267 238 236 271 184 134 163 170 197 188 179 178 174 199 184 177 138
45 41 35 28 28 29 32 28 28 25 20 21 15 3 8 13 7 4 1 2 5 7 5 5 7 3 6 16 21 24 20 15 18 22 19 20 20 19 16 11 6 359 350 336 329 315 285 266 248 180 145 151 163 180 195 209 189 190 185 186 205 171 162
52 43 35 35 36 40 39 36 35 30 26 27 20 10 13 15 5 13 10 18 14 12 13 14 8 1 11 20 23 27 25 22 19 17 16 15 15 15 15 12 10 11 3 358 348 326 325 265 286 328 359 147 162 184 196 166 189 196 186 194 183 180 173
54 47 42 43 44 40 38 35 33 32 34 33 28 19 13 10 19 17 18 18 15 18 24 13 1 8 2 21 26 28 25 23 19 16 12 10 8 9 12 14 12 22 24 22 21 11 359 352 341 285 267 180 213 212 189 178 197 181 213 195 175 150 171
57 53 46 44 41 37 36 33 35 36 36 34 30 21 31 22 25 22 18 14 18 22 18 12 18 26 26 30 32 31 31 27 24 22 16 9 7 6 6 12 12 19 22 25 25 23 21 15 17 20 355 294 253 204 163 203 200 208 198 206 198 172 178
57 53 47 44 38 38 36 36 37 36 35 33 33 33 33 31 27 23 25 22 22 25 21 12 16 26 27 29 38 39 35 28 23 23 21 18 14 6 4 9 9 14 19 22 22 22 26 28 33 34 35 36 32 3 222 185 222 195 186 212 207 199 198
65 57 53 48 44 42 39 41 41 36 37 34 29 32 38 35 34 30 30 32 31 25 21 10 17 22 26 29 34 41 35 30 25 26 26 22 16 15 10 11 13 8 13 16 16 15 14 23 30 35 34 32 25 19 21 8 226 198 176 215 217 210 206
69 63 56 51 48 48 46 47 41 37 37 28 31 40 34 36 34 31 33 33 29 22 23 9 13 16 22 30 34 44 42 39 34 32 31 30 28 24 17 15 12 12 9 13 11 4 22 18 26 38 38 29 28 28 24 21 19 18 209 213 236 241 234
70 66 60 55 53 52 51 48 42 36 36 34 41 40 36 38 35 33 33 35 32 26 27 6 13 13 17 24 29 39 44 44 45 41 37 34 31 29 27 23 18 13 1 6 9 2 5 24 33 43 41 38 32 23 24 27 24 22 19 8 358 303 354
67 63 58 55 55 53 49 46 42 32 36 39 40 40 34 37 35 35 33 31 38 35 25 14 17 18 17 19 19 35 36 39 42 41 38 37 34 32 29 29 27 21 15 13 9 14 4 3 28 40 42 42 41 36 33 24 21 21 21 22 18 9 349
65 61 59 57 57 54 50 44 42 29 44 45 45 45 41 40 36 34 33 33 39 37 25 18 20 21 19 16 23 34 33 37 40 37 35 32 34 30 28 29 33 32 30 25 17 20 14 7 18 32 41 39 35 36 43 42 32 39 47 51 46 33 9
70 66 62 63 59 54 52 44 42 31 54 48 47 43 41 38 32 33 33 34 36 36 30 19 22 22 20 17 30 35 34 37 38 39 34 28 30 34 33 27 27 29 31 28 25 28 21 23 25 21 26 34 33 35 26 8 13 26 29 36 41 38 31
70 64 62 63 62 59 56 52 50 36 55 53 50 41 37 44 37 34 34 35 31 37 32 22 23 24 24 20 28 35 34 41 41 37 35 32 31 33 30 29 29 28 28 21 25 34 29 30 28 21 21 26 32 34 23 9 14 18 21 29 28 36 39
68 68 66 62 63 66 57 56 48 48 52 56 55 47 44 47 43 36 32 32 31 36 30 24 23 26 28 25 27 32 31 39 42 32 30 31 30 33 26 26 26 24 25 22 26 28 30 37 37 21 24 29 27 29 19 12 17 19 19 21 19 20 29
68 72 75 69 61 59 58 58 49 57 51 51 56 47 48 47 48 38 27 30 31 27 29 24 23 25 29 29 27 35 30 38 35 28 28 30 28 25 26 22 22 20 24 27 27 28 27 29 41 37 39 35 23 20 357 21 22 24 29 29 26 28 34
74 68 69 75 72 63 53 59 55 55 55 48 55 50 46 44 48 42 32 30 32 26 27 25 22 28 30 32 30 34 39 37 31 31 29 31 29 27 22 19 17 16 25 28 30 29 30 30 30 36 35 43 35 10 20 29 16 20 31 26 26 25 25
67 71 66 69 70 63 49 55 57 57 56 57 58 53 44 43 48 44 37 32 31 25 18 26 25 25 29 32 35 37 43 35 29 37 39 35 29 28 21 15 18 16 24 28 29 30 30 32 32 35 24 24 22 26 32 29 26 24 27 26 25 27 21
65 67 69 67 76 71 56 58 52 51 56 59 60 57 45 42 48 47 43 33 28 24 16 17 27 26 26 31 33 37 40 38 31 44 44 37 28 17 12 16 12 18 25 25 27 29 29 27 32 27 23 22 21 20 24 28 26 30 28 27 29 28 22
64 63 69 73 73 73 62 61 57 50 54 60 63 59 44 43 50 49 44 33 25 19 15 17 18 23 25 28 32 35 37 38 38 46 46 39 22 22 18 15 18 21 23 23 24 26 27 28 27 24 24 22 21 22 27 24 23 25 29 29 30 27 22